Sun, 01 Aug 2021 02:14:26 UTC

Information for RPM xstream-1.4.9-4.fc26.noarch.rpm

ID8938192
Namexstream
Version1.4.9
Release4.fc26
Epoch
Archnoarch
SummaryJava XML serialization library
DescriptionXStream is a simple library to serialize objects to XML and back again. A high level facade is supplied that simplifies common use cases. Custom objects can be serialized without need for specifying mappings. Speed and low memory footprint are a crucial part of the design, making it suitable for large object graphs or systems with high message throughput. No information is duplicated that can be obtained via reflection. This results in XML that is easier to read for humans and more compact than native Java serialization. XStream serializes internal fields, including private and final. Supports non-public and inner classes. Classes are not required to have default constructor. Duplicate references encountered in the object-model will be maintained. Supports circular references. By implementing an interface, XStream can serialize directly to/from any tree structure (not just XML). Strategies can be registered allowing customization of how particular types are represented as XML. When an exception occurs due to malformed XML, detailed diagnostics are provided to help isolate and fix the problem.
Build Time2017-02-06 14:46:11 GMT
Size512,738
3291b316bfb81da744fc4d244475c80c
LicenseBSD
Buildrootf26-build-7548494-692187
Provides
mvn(com.thoughtworks.xstream:xstream) = 1.4.9
mvn(com.thoughtworks.xstream:xstream:pom:) = 1.4.9
osgi(xstream) = 1.4.9
xstream = 1.4.9-4.fc26
Obsoletes No Obsoletes
Conflicts No Conflicts
Requires
java-headless >= 1:1.8
javapackages-tools
mvn(xpp3:xpp3)
mvn(xpp3:xpp3_min)
rpmlib(CompressedFileNames) <= 3.0.4-1
rpmlib(FileDigests) <= 4.6.0-1
rpmlib(PayloadFilesHavePrefix) <= 4.0-1
rpmlib(PayloadIsXz) <= 5.2-1
Recommends No Recommends
Suggests No Suggests
Supplements No Supplements
Enhances No Enhances
Files
1 through 10 of 10
Name ascending sort Size
/usr/share/doc/xstream4,096
/usr/share/doc/xstream/LICENSE.txt1,527
/usr/share/doc/xstream/README.txt1,122
/usr/share/java/xstream4,096
/usr/share/java/xstream.jar19
/usr/share/java/xstream/xstream.jar575,146
/usr/share/maven-metadata/xstream.xml8,426
/usr/share/maven-poms/xstream4,096
/usr/share/maven-poms/xstream.pom19
/usr/share/maven-poms/xstream/xstream.pom11,643
Component of
Page:
1 through 50 of 30853 >>>
Buildroot descending sort Created State
f26-build-8306177-735679 2017-04-19 03:12:32 expired
f26-build-8306173-735679 2017-04-19 03:09:54 expired
f26-build-8306171-735679 2017-04-19 03:09:02 expired
f26-build-8305848-735679 2017-04-19 02:03:22 expired
f26-build-8305835-735679 2017-04-19 02:01:42 expired
f26-build-8305310-735679 2017-04-19 00:18:29 expired
f26-build-8305308-735679 2017-04-19 00:18:00 expired
f26-build-8305307-735679 2017-04-19 00:17:37 expired
f26-build-8305306-735679 2017-04-19 00:17:24 expired
f26-build-8305305-735679 2017-04-19 00:17:05 expired
f26-build-8305304-735679 2017-04-19 00:16:44 expired
f26-build-8305303-735679 2017-04-19 00:16:28 expired
f26-build-8305302-735679 2017-04-19 00:16:12 expired
f26-build-8305298-735679 2017-04-19 00:16:05 expired
f26-build-8305297-735679 2017-04-19 00:15:51 expired
f26-build-8305296-735679 2017-04-19 00:15:43 expired
f26-build-8305295-735679 2017-04-19 00:15:30 expired
f26-build-8305294-735679 2017-04-19 00:15:29 expired
f26-build-8305293-735679 2017-04-19 00:15:27 expired
f26-build-8305292-735679 2017-04-19 00:15:27 expired
f26-build-8305291-735679 2017-04-19 00:15:27 expired
f26-build-8305290-735679 2017-04-19 00:15:24 expired
f26-build-8305289-735679 2017-04-19 00:15:24 expired
f26-build-8305288-735679 2017-04-19 00:15:17 expired
f26-build-8305278-735679 2017-04-19 00:12:22 expired
f26-build-8305277-735679 2017-04-19 00:12:02 expired
f26-build-8305276-735679 2017-04-19 00:11:42 expired
f26-build-8305161-735608 2017-04-18 23:51:18 expired
f26-build-8305160-735608 2017-04-18 23:51:00 expired
f26-build-8305159-735608 2017-04-18 23:50:59 expired
f26-build-8305158-735608 2017-04-18 23:50:59 expired
f26-build-8305157-735608 2017-04-18 23:50:58 expired
f26-build-8305156-735608 2017-04-18 23:50:58 expired
f26-build-8305155-735608 2017-04-18 23:50:58 expired
f26-build-8305154-735608 2017-04-18 23:50:32 expired
f26-build-8305153-735608 2017-04-18 23:50:07 expired
f26-build-8305152-735608 2017-04-18 23:49:41 expired
f26-build-8305151-735608 2017-04-18 23:49:11 expired
f26-build-8305150-735608 2017-04-18 23:48:40 expired
f26-build-8305141-735608 2017-04-18 23:47:25 expired
f26-build-8305140-735608 2017-04-18 23:47:03 expired
f26-build-8305139-735608 2017-04-18 23:46:43 expired
f26-build-8305138-735608 2017-04-18 23:46:37 expired
f26-build-8305137-735608 2017-04-18 23:46:36 expired
f26-build-8305136-735608 2017-04-18 23:46:36 expired
f26-build-8305135-735608 2017-04-18 23:46:36 expired
f26-build-8305134-735608 2017-04-18 23:46:36 expired
f26-build-8305121-735608 2017-04-18 23:43:53 expired
f26-build-8305120-735608 2017-04-18 23:43:27 expired
f26-build-8304989-735608 2017-04-18 23:30:04 expired